Location: *
(50.2903°S, 172.5375°W)
Time: 21:53:39
(UTC+00:00)

Cosmos 1271 Rocket - Pass Details

Date: 17 November 2019
Orbit: 499 x 546 km, 81.2° (Epoch: 05 December)

Event Time Altitude Azimuth Distance (km) Brightness Sun altitude
Rises 12:34:55 0° 189° (S) 2,657 7.4 -18.5°
Reaches altitude 10° 12:37:05 10° 185° (S) 1,767 6.4 -18.4°
Maximum altitude 12:40:55 57° 105° (ESE) 622 3.2 -18.2°
Enters shadow 12:42:54 26° 35° (NE) 1,059 3.9 -18.1°
